CANX-4

Last updated on Thu Mar 05 2026 00:04:02 GMT+0000 (Coordinated Universal Time)

1 40055U 14034C 26063.50886398 .00001720 00000+0 22890-3 0 9993 2 40055 98.3285 294.8975 0012697 353.4453 6.6590 14.81047018629037
UTC large
Height (km)
Speed (km/s)
/
Latitude / Longitude
Inclination (degrees)
Orbital Period (minutes)
Azimuth
Elevation
Range (km)
Doppler Factor

Next 0 passes for location: London (51.5072 / 0.1276)

Sorry there are no passes over London.